Powrót do katalogu

COSMOS 2475

GLONASS

AktywnyNawigacjaMEO
NORAD 37869·PAYLOAD·🇷🇺 Russia

Wystrzelony Nov 4, 2011 z Baikonur Cosmodrome

Loading…

Następne Przeloty (najbliższe 24 godziny)

TLE

ŚwieżeSource: CelesTrak SupGP

Epoka: Sep 13, 2026, 23:59 UTC

1 37869C 11064C   26256.99979167  .00000000  00000+0  00000+0 0  2567
2 37869  65.3388  69.9781 0024823 245.8426 147.9297  2.13101746    13

Śledź COSMOS 2475 w czasie rzeczywistym z AllMySat

Download on the App Store